Orbital Elements at Epoch 2459139.5 (2020-Oct-17.0) TDB
Reference: JPL 2 (heliocentric ecliptic J2000)
Element | Value | Uncertainty (1-sigma) | Units |
e | .5141037326279956 | 0.00085012 | |
a | 1.253580360291504 | 0.0013319 | au |
q | .6091100179164944 | 0.00041858 | au |
i | 5.749048567453064 | 0.011177 | deg |
node | 199.7391607288455 | 0.0017623 | deg |
peri | 285.7545836388402 | 0.0022616 | deg |
M | 318.2786789762444 | 0.096982 | deg |
tp | 2459198.913104540528 (2020-Dec-15.41310454) | 0.043419 | TDB |
period | 512.6567690033494 1.40 | 0.81704 0.002237 | d yr |
n | .7022242205050216 | 0.0011192 | deg/d |
Q | 1.898050702666514 | 0.0020167 | au |
|
| | Orbit Determination Parameters
Additional Information
|